Estación de San Diego

Ultimos registro cada 15 minutos 84
Estación Fecha / Hora Temperatura Humedad Lluvia Velocidad Dirección Radiación Presion
84 San Diego 05-05-2026 21:00 12 90 0 0 25 0 1015,2
83 San Diego 05-05-2026 20:45 12,3 90 0 0 25 0 1015,2
82 San Diego 05-05-2026 20:30 12,7 90 0 0 25 0 1015
81 San Diego 05-05-2026 20:15 12,9 90 0 0 25 0 1015,2
80 San Diego 05-05-2026 20:00 13,1 89 0 0 39 0 1015,2
79 San Diego 05-05-2026 19:45 13,1 87 0 0 187 0 1015
78 San Diego 05-05-2026 19:30 13,5 85 0 0,4 187 0 1015
77 San Diego 05-05-2026 19:15 13,9 85 0 0 135 0 1015
76 San Diego 05-05-2026 19:00 14,2 84 0 0 116 0 1014,7
75 San Diego 05-05-2026 18:45 14,4 81 0 0 36 0 1014,5
74 San Diego 05-05-2026 18:30 14,8 80 0 0 188 0 1014,3
73 San Diego 05-05-2026 18:15 14,9 80 0 0,4 224 0 1014,4
72 San Diego 05-05-2026 18:00 15,2 79 0 2,2 292 0 1014,2
71 San Diego 05-05-2026 17:45 15,4 79 0 0,4 221 5 1014
70 San Diego 05-05-2026 17:30 15,9 78 0 0 216 18 1013,8
69 San Diego 05-05-2026 17:15 16,6 75 0 2,2 204 30 1013,6
68 San Diego 05-05-2026 17:00 17,1 74 0 1,8 257 47 1013,6
67 San Diego 05-05-2026 16:45 17,8 71 0 1,8 185 74 1013,1
66 San Diego 05-05-2026 16:30 18,8 67 0 1,3 221 118 1012,7
65 San Diego 05-05-2026 16:15 19,2 66 0 0 214 343 1012,7
64 San Diego 05-05-2026 16:00 19,4 64 0 0,9 185 179 1012,3
63 San Diego 05-05-2026 15:45 19,6 63 0 2,2 282 179 1012,4
62 San Diego 05-05-2026 15:30 19,9 61 0 0,9 289 251 1012,2
61 San Diego 05-05-2026 15:15 20,4 59 0 2,2 283 190 1011,9
60 San Diego 05-05-2026 15:00 20,8 60 0 2,2 24 311 1011,7
59 San Diego 05-05-2026 14:45 21,8 58 0 2,2 312 274 1011,6
58 San Diego 05-05-2026 14:30 21,2 60 0 2,2 301 399 1011,7
57 San Diego 05-05-2026 14:15 21,5 58 0 2,2 314 323 1011,5
56 San Diego 05-05-2026 14:00 22,2 57 0 1,8 326 492 1011,4
55 San Diego 05-05-2026 13:45 22,5 57 0 2,7 297 408 1011,4
54 San Diego 05-05-2026 13:30 22,4 57 0 0,4 307 392 1011,2
53 San Diego 05-05-2026 13:15 22,7 55 0 0,4 198 348 1011,2
52 San Diego 05-05-2026 13:00 23,2 53 0 0,9 212 281 1011
51 San Diego 05-05-2026 12:45 23 55 0 2,2 278 315 1011,1
50 San Diego 05-05-2026 12:30 23 54 0 0,9 228 308 1011
49 San Diego 05-05-2026 12:15 22,6 56 0 0,4 100 304 1011,2
48 San Diego 05-05-2026 12:00 22,4 56 0 0,9 170 200 1011,2
47 San Diego 05-05-2026 11:45 22,3 57 0 0,9 164 258 1011
46 San Diego 05-05-2026 11:30 21,9 58 0 1,3 164 663 1011,3
45 San Diego 05-05-2026 11:15 21,1 60 0 0 71 663 1011,4
44 San Diego 05-05-2026 11:00 20 62 0 0,4 30 485 1011,8
43 San Diego 05-05-2026 10:45 19,1 66 0 0,9 127 513 1011,7
42 San Diego 05-05-2026 10:30 18,1 68 0 0 80 232 1011,9
41 San Diego 05-05-2026 10:15 17,7 69 0 0,4 328 204 1011,9
40 San Diego 05-05-2026 10:00 17,7 69 0 0 18 229 1011,9
39 San Diego 05-05-2026 09:45 17,3 70 0 0,4 330 399 1012,2
38 San Diego 05-05-2026 09:30 16,6 71 0 0 31 202 1012,2
37 San Diego 05-05-2026 09:15 15,9 76 0 0,9 333 285 1012,4
36 San Diego 05-05-2026 09:00 14,6 82 0 0,9 333 209 1012,5
35 San Diego 05-05-2026 08:45 13,7 86 0 0,4 273 95 1012,5
34 San Diego 05-05-2026 08:30 12,4 92 0 0 305 171 1012,9
33 San Diego 05-05-2026 08:15 10,8 96 0 0 225 65 1013,1
32 San Diego 05-05-2026 08:00 10,1 97 0 0 8 33 1013,3
31 San Diego 05-05-2026 07:45 8,6 95 0 0 274 19 1013,5
30 San Diego 05-05-2026 07:30 8,5 95 0 0 297 9 1013,7
29 San Diego 05-05-2026 07:15 8,6 95 0 0 307 0 1013,9
28 San Diego 05-05-2026 07:00 8,9 96 0 0 5 0 1014
27 San Diego 05-05-2026 06:30 8,2 96 0 0 288 0 1013,8
26 San Diego 05-05-2026 06:15 8 95 0 0 326 0 1014,1
25 San Diego 05-05-2026 06:00 7,8 95 0 0 326 0 1014
24 San Diego 05-05-2026 05:45 7,6 95 0 0 326 0 1013,7
23 San Diego 05-05-2026 05:30 7,5 95 0 0 326 0 1013,3
22 San Diego 05-05-2026 05:15 7,7 94 0 0 326 0 1013,1
21 San Diego 05-05-2026 05:00 7,9 95 0 0 289 0 1012,9
20 San Diego 05-05-2026 04:45 7,4 94 0 0 291 0 1012,7
19 San Diego 05-05-2026 04:30 7,6 94 0 0 291 0 1012,8
18 San Diego 05-05-2026 04:15 7,5 94 0 0 291 0 1012,9
17 San Diego 05-05-2026 04:00 7,5 93 0 0 291 0 1012,9
16 San Diego 05-05-2026 03:45 7,8 94 0 0 291 0 1013
15 San Diego 05-05-2026 03:30 8 94 0 0 291 0 1013
14 San Diego 05-05-2026 03:15 8,1 94 0 0 291 0 1013
13 San Diego 05-05-2026 03:00 8,2 93 0 0 353 0 1013,2
12 San Diego 05-05-2026 02:45 8,6 94 0 0 18 0 1013,2
11 San Diego 05-05-2026 02:30 8,7 94 0 0 18 0 1013,4
10 San Diego 05-05-2026 02:15 8,9 94 0 0 18 0 1013,4
9 San Diego 05-05-2026 02:00 8,9 94 0 0 18 0 1013,4
8 San Diego 05-05-2026 01:45 8,9 94 0 0 18 0 1013,6
7 San Diego 05-05-2026 01:30 8,8 92 0 0 55 0 1013,9
6 San Diego 05-05-2026 01:15 9,5 93 0 0 55 0 1013,9
5 San Diego 05-05-2026 01:00 9,8 93 0 0 55 0 1013,8
4 San Diego 05-05-2026 00:45 9,9 92 0 0 55 0 1013,9
3 San Diego 05-05-2026 00:30 10,4 93 0 0 55 0 1013,9
2 San Diego 05-05-2026 00:15 10,6 94 0 0 55 0 1014,1
1 San Diego 05-05-2026 00:00 10,2 94 0 0 55 0 1014,3